| time (UTC) | temp F | wind direction | speed MPH | gust MPH | rain 1hr in | rain 24hr in | rain mn in | humidity % | barometer mb |
| 20260503190549 | 61 | 354 | 4.0 | 12.0 | 0.00 | 0.00 | 0.00 | 48 | 1014.0 |
| 20260503190049 | 62 | 292 | 5.0 | 12.0 | 0.00 | 0.00 | 0.00 | 50 | 1014.1 |
| 20260503185550 | 62 | 321 | 4.0 | 10.0 | 0.00 | 0.00 | 0.00 | 50 | 1014.1 |
| 20260503185049 | 62 | 337 | 5.0 | 7.0 | 0.00 | 0.00 | 0.00 | 51 | 1014.1 |
| 20260503184549 | 61 | 341 | 3.0 | 7.0 | 0.00 | 0.00 | 0.00 | 50 | 1014.0 |
| 20260503184048 | 61 | 281 | 4.0 | 7.0 | 0.00 | 0.00 | 0.00 | 49 | 1014.0 |
| 20260503183548 | 61 | 321 | 4.0 | 9.0 | 0.00 | 0.00 | 0.00 | 51 | 1014.2 |
| 20260503182548 | 61 | 331 | 4.0 | 7.0 | 0.00 | 0.00 | 0.00 | 51 | 1014.1 |
| 20260503182048 | 60 | 336 | 2.0 | 9.0 | 0.00 | 0.00 | 0.00 | 51 | 1013.9 |
| 20260503181548 | 60 | 283 | 4.0 | 9.0 | 0.00 | 0.00 | 0.00 | 51 | 1013.9 |
| 20260503181048 | 60 | 264 | 3.0 | 13.0 | 0.00 | 0.00 | 0.00 | 52 | 1014.0 |
| 20260503180548 | 60 | 338 | 5.0 | 13.0 | 0.00 | 0.00 | 0.00 | 52 | 1013.9 |
| 20260503180047 | 60 | 344 | 4.0 | 9.0 | 0.00 | 0.00 | 0.00 | 53 | 1013.9 |
| 20260503175047 | 59 | 275 | 2.0 | 10.0 | 0.00 | 0.00 | 0.00 | 53 | 1013.9 |
| 20260503174547 | 59 | 285 | 3.0 | 5.0 | 0.00 | 0.00 | 0.00 | 54 | 1014.0 |
| 20260503174048 | 58 | 338 | 2.0 | 10.0 | 0.00 | 0.00 | 0.00 | 54 | 1014.0 |
| 20260503173548 | 58 | 307 | 4.0 | 10.0 | 0.00 | 0.00 | 0.00 | 54 | 1014.1 |
| 20260503173047 | 58 | 300 | 4.0 | 9.0 | 0.00 | 0.00 | 0.00 | 54 | 1014.1 |
| 20260503172547 | 58 | 354 | 4.0 | 9.0 | 0.00 | 0.00 | 0.00 | 55 | 1014.1 |
| 20260503172048 | 58 | 357 | 3.0 | 6.0 | 0.00 | 0.00 | 0.00 | 56 | 1014.1 |
| 20260503171547 | 58 | 340 | 2.0 | 7.0 | 0.00 | 0.00 | 0.00 | 56 | 1014.0 |
| 20260503171046 | 58 | 307 | 4.0 | 7.0 | 0.00 | 0.00 | 0.00 | 56 | 1014.0 |
| 20260503150542 | 55 | 298 | 0.0 | 1.0 | 0.00 | 0.00 | 0.00 | 61 | 1013.4 |
| 20260503131039 | 54 | 306 | 0.0 | 3.0 | 0.00 | 0.00 | 0.00 | 61 | 1012.1 |
| 20260503130539 | 54 | 305 | 0.0 | 5.0 | 0.00 | 0.00 | 0.00 | 61 | 1011.9 |
| 20260503110538 | 54 | 310 | 1.0 | 5.0 | 0.00 | 0.00 | 0.00 | 59 | 1012.1 |
| 20260503081535 | 55 | 300 | 1.0 | 3.0 | 0.00 | 0.00 | 0.00 | 61 | 1012.9 |
| 20260503081035 | 55 | 302 | 1.0 | 3.0 | 0.00 | 0.00 | 0.00 | 62 | 1013.0 |
| 20260503080535 | 55 | 300 | 0.0 | 1.0 | 0.00 | 0.00 | 0.00 | 62 | 1012.9 |
| 20260503072531 | 54 | 330 | 0.0 | 3.0 | 0.00 | 0.00 | 0.00 | 62 | 1012.9 |
| 20260503072031 | 54 | 330 | 1.0 | 4.0 | 0.00 | 0.00 | 0.00 | 62 | 1012.9 |
| 20260503071531 | 54 | 324 | 0.0 | 5.0 | 0.00 | 0.00 | 0.00 | 62 | 1012.9 |
| 20260503071032 | 54 | 292 | 2.0 | 7.0 | 0.00 | 0.00 | 0.00 | 62 | 1012.9 |
| 20260503070532 | 54 | 341 | 2.0 | 7.0 | 0.00 | 0.00 | 0.00 | 62 | 1013.0 |
| 20260503055031 | 54 | 303 | 2.0 | 6.0 | 0.00 | 0.00 | 0.00 | 62 | 1013.3 |
| 20260503054531 | 54 | 347 | 3.0 | 6.0 | 0.00 | 0.00 | 0.00 | 62 | 1013.4 |
| 20260503054031 | 54 | 288 | 2.0 | 7.0 | 0.00 | 0.00 | 0.00 | 62 | 1013.4 |
| 20260503053533 | 54 | 299 | 2.0 | 7.0 | 0.00 | 0.00 | 0.00 | 62 | 1013.5 |
| 20260503053032 | 54 | 299 | 4.0 | 7.0 | 0.00 | 0.00 | 0.00 | 63 | 1013.5 |
| 20260503052531 | 55 | 340 | 2.0 | 5.0 | 0.00 | 0.00 | 0.00 | 63 | 1013.4 |
| 20260503052031 | 54 | 321 | 2.0 | 5.0 | 0.00 | 0.00 | 0.00 | 63 | 1013.4 |
| 20260503051532 | 55 | 275 | 2.0 | 5.0 | 0.00 | 0.00 | 0.00 | 63 | 1013.3 |
| 20260503051030 | 55 | 355 | 2.0 | 6.0 | 0.00 | 0.00 | 0.00 | 63 | 1013.4 |
| 20260503050531 | 55 | 338 | 2.0 | 6.0 | 0.00 | 0.00 | 0.00 | 62 | 1013.3 |
| 20260503045531 | 55 | 324 | 3.0 | 10.0 | 0.00 | 0.00 | 0.00 | 62 | 1013.4 |
| 20260503045032 | 55 | 283 | 3.0 | 10.0 | 0.00 | 0.00 | 0.00 | 62 | 1013.3 |
| 20260503044031 | 55 | 313 | 3.0 | 7.0 | 0.00 | 0.00 | 0.00 | 62 | 1013.3 |
| 20260503043532 | 55 | 298 | 2.0 | 7.0 | 0.00 | 0.00 | 0.00 | 62 | 1013.4 |
| 20260503043031 | 55 | 292 | 3.0 | 6.0 | 0.00 | 0.00 | 0.00 | 61 | 1013.4 |
| 20260503042531 | 55 | 306 | 3.0 | 5.0 | 0.00 | 0.00 | 0.00 | 61 | 1013.4 |
| 20260503042032 | 55 | 305 | 1.0 | 6.0 | 0.00 | 0.00 | 0.00 | 61 | 1013.4 |
| 20260503041531 | 55 | 317 | 2.0 | 7.0 | 0.00 | 0.00 | 0.00 | 61 | 1013.4 |
| 20260503041031 | 55 | 295 | 4.0 | 7.0 | 0.00 | 0.00 | 0.00 | 61 | 1013.3 |
| 20260503040532 | 55 | 243 | 1.0 | 6.0 | 0.00 | 0.00 | 0.00 | 61 | 1013.2 |
| 20260503040032 | 55 | 323 | 2.0 | 5.0 | 0.00 | 0.00 | 0.00 | 61 | 1013.2 |
| 20260503035531 | 55 | 343 | 3.0 | 5.0 | 0.00 | 0.00 | 0.00 | 61 | 1013.1 |
| 20260503034531 | 55 | 58 | 2.0 | 7.0 | 0.00 | 0.00 | 0.00 | 61 | 1012.9 |
| 20260503034030 | 55 | 289 | 2.0 | 6.0 | 0.00 | 0.00 | 0.00 | 61 | 1012.9 |
| 20260503033531 | 55 | 330 | 3.0 | 6.0 | 0.00 | 0.00 | 0.00 | 61 | 1012.9 |
| 20260503033031 | 55 | 272 | 3.0 | 6.0 | 0.00 | 0.00 | 0.00 | 61 | 1012.7 |
| 20260503032531 | 55 | 310 | 3.0 | 7.0 | 0.00 | 0.00 | 0.00 | 61 | 1012.7 |
| 20260503032031 | 55 | 323 | 3.0 | 9.0 | 0.00 | 0.00 | 0.00 | 61 | 1012.7 |
| 20260503031530 | 55 | 347 | 3.0 | 10.0 | 0.00 | 0.00 | 0.00 | 61 | 1012.6 |
| 20260503031031 | 55 | 314 | 4.0 | 10.0 | 0.00 | 0.00 | 0.00 | 61 | 1012.4 |
| 20260503030031 | 55 | 344 | 3.0 | 7.0 | 0.00 | 0.00 | 0.00 | 61 | 1012.4 |
| 20260503025031 | 55 | 338 | 2.0 | 5.0 | 0.00 | 0.00 | 0.00 | 61 | 1012.4 |
| 20260503024531 | 55 | 254 | 4.0 | 9.0 | 0.00 | 0.00 | 0.00 | 61 | 1012.5 |
| 20260503024031 | 55 | 337 | 2.0 | 9.0 | 0.00 | 0.00 | 0.00 | 61 | 1012.5 |
| 20260503023530 | 55 | 295 | 3.0 | 9.0 | 0.00 | 0.00 | 0.00 | 61 | 1012.5 |
| 20260503023032 | 55 | 296 | 4.0 | 9.0 | 0.00 | 0.00 | 0.00 | 61 | 1012.5 |
| 20260503022532 | 55 | 347 | 3.0 | 14.0 | 0.00 | 0.00 | 0.00 | 60 | 1012.4 |
| 20260503022031 | 55 | 282 | 4.0 | 14.0 | 0.00 | 0.00 | 0.00 | 60 | 1012.3 |
| 20260503021531 | 55 | 255 | 4.0 | 10.0 | 0.00 | 0.00 | 0.00 | 60 | 1012.4 |
| 20260503021033 | 56 | 283 | 6.0 | 11.0 | 0.00 | 0.00 | 0.00 | 60 | 1012.5 |
| 20260503020531 | 56 | 306 | 5.0 | 11.0 | 0.00 | 0.00 | 0.00 | 60 | 1012.5 |
| 20260503020031 | 56 | 250 | 6.0 | 11.0 | 0.00 | 0.00 | 0.00 | 60 | 1012.5 |
| 20260503015531 | 56 | 1 | 4.0 | 11.0 | 0.00 | 0.00 | 0.00 | 59 | 1012.4 |
| 20260503015032 | 56 | 327 | 5.0 | 10.0 | 0.00 | 0.00 | 0.00 | 59 | 1012.5 |
| 20260503014531 | 56 | 264 | 1.0 | 11.0 | 0.00 | 0.00 | 0.00 | 59 | 1012.6 |
| 20260503014031 | 56 | 250 | 4.0 | 11.0 | 0.00 | 0.00 | 0.00 | 59 | 1012.6 |
| 20260503013531 | 56 | 351 | 4.0 | 12.0 | 0.00 | 0.00 | 0.00 | 59 | 1012.6 |
| 20260503013031 | 57 | 344 | 3.0 | 12.0 | 0.00 | 0.00 | 0.00 | 58 | 1012.6 |
| 20260503012531 | 57 | 333 | 3.0 | 9.0 | 0.00 | 0.00 | 0.00 | 58 | 1012.7 |
| 20260503012032 | 57 | 306 | 4.0 | 10.0 | 0.00 | 0.00 | 0.00 | 58 | 1012.7 |
| 20260503011531 | 57 | 251 | 5.0 | 10.0 | 0.00 | 0.00 | 0.00 | 58 | 1012.8 |
| 20260503011031 | 57 | 345 | 3.0 | 11.0 | 0.00 | 0.00 | 0.00 | 58 | 1012.7 |
| 20260503010531 | 57 | 241 | 4.0 | 11.0 | 0.00 | 0.00 | 0.00 | 57 | 1012.7 |
| 20260503010031 | 57 | 290 | 2.0 | 9.0 | 0.00 | 0.00 | 0.00 | 57 | 1012.8 |
| 20260503005531 | 58 | 319 | 4.0 | 7.0 | 0.00 | 0.00 | 0.00 | 57 | 1012.8 |
| 20260503004532 | 58 | 302 | 4.0 | 11.0 | 0.00 | 0.00 | 0.00 | 56 | 1012.8 |
| 20260503004031 | 58 | 283 | 5.0 | 11.0 | 0.00 | 0.00 | 0.00 | 56 | 1012.9 |
| 20260503003531 | 58 | 278 | 4.0 | 11.0 | 0.00 | 0.00 | 0.00 | 56 | 1012.8 |
| 20260503001531 | 58 | 344 | 5.0 | 16.0 | 0.00 | 0.00 | 0.00 | 55 | 1012.8 |
| 20260503001031 | 58 | 333 | 4.0 | 16.0 | 0.00 | 0.00 | 0.00 | 55 | 1012.8 |
| 20260503000532 | 58 | 345 | 5.0 | 14.0 | 0.00 | 0.00 | 0.00 | 55 | 1012.9 |
| 20260503000031 | 58 | 0 | 7.0 | 14.0 | 0.00 | 0.00 | 0.00 | 55 | 1012.8 |
| 20260502235531 | 59 | 327 | 7.0 | 12.0 | 0.00 | 0.00 | 0.00 | 55 | 1012.8 |
| 20260502234532 | 59 | 313 | 5.0 | 11.0 | 0.00 | 0.00 | 0.00 | 54 | 1012.9 |
| 20260502233533 | 59 | 347 | 5.0 | 13.0 | 0.00 | 0.00 | 0.00 | 54 | 1012.9 |
| 20260502233031 | 59 | 293 | 5.0 | 12.0 | 0.00 | 0.00 | 0.00 | 54 | 1013.0 |
| 20260502232531 | 60 | 307 | 7.0 | 12.0 | 0.00 | 0.00 | 0.00 | 54 | 1013.1 |
| 20260502231531 | 60 | 334 | 8.0 | 17.0 | 0.00 | 0.00 | 0.00 | 54 | 1013.1 |
| 20260502231031 | 60 | 283 | 6.0 | 17.0 | 0.00 | 0.00 | 0.00 | 54 | 1013.1 |
| 20260502230530 | 60 | 235 | 8.0 | 14.0 | 0.00 | 0.00 | 0.00 | 52 | 1013.1 |
| 20260502230032 | 61 | 238 | 8.0 | 15.0 | 0.00 | 0.00 | 0.00 | 51 | 1013.3 |
| 20260502225532 | 61 | 306 | 8.0 | 15.0 | 0.00 | 0.00 | 0.00 | 51 | 1013.4 |
| 20260502225031 | 61 | 317 | 6.0 | 13.0 | 0.00 | 0.00 | 0.00 | 51 | 1013.4 |
| 20260502224532 | 61 | 286 | 6.0 | 11.0 | 0.00 | 0.00 | 0.00 | 51 | 1013.4 |
| 20260502223531 | 62 | 0 | 6.0 | 13.0 | 0.00 | 0.00 | 0.00 | 52 | 1013.5 |
| 20260502223032 | 61 | 296 | 6.0 | 14.0 | 0.00 | 0.00 | 0.00 | 52 | 1013.7 |
| 20260502222033 | 62 | 283 | 4.0 | 12.0 | 0.00 | 0.00 | 0.00 | 51 | 1013.7 |
| 20260502221532 | 62 | 288 | 5.0 | 12.0 | 0.00 | 0.00 | 0.00 | 51 | 1013.7 |
| 20260502221032 | 62 | 276 | 5.0 | 12.0 | 0.00 | 0.00 | 0.00 | 50 | 1013.8 |
| 20260502220533 | 62 | 261 | 4.0 | 14.0 | 0.00 | 0.00 | 0.00 | 51 | 1013.8 |
| 20260502220032 | 62 | 274 | 5.0 | 14.0 | 0.00 | 0.00 | 0.00 | 51 | 1013.7 |
| 20260502215533 | 62 | 261 | 7.0 | 14.0 | 0.00 | 0.00 | 0.00 | 51 | 1013.8 |
| 20260502215032 | 62 | 290 | 4.0 | 14.0 | 0.00 | 0.00 | 0.00 | 51 | 1013.9 |
| 20260502214532 | 62 | 334 | 6.0 | 11.0 | 0.00 | 0.00 | 0.00 | 51 | 1013.9 |
| 20260502214034 | 62 | 334 | 4.0 | 11.0 | 0.00 | 0.00 | 0.00 | 52 | 1013.8 |
| 20260502213531 | 62 | 321 | 5.0 | 14.0 | 0.00 | 0.00 | 0.00 | 53 | 1013.9 |
| 20260502213033 | 62 | 238 | 6.0 | 14.0 | 0.00 | 0.00 | 0.00 | 52 | 1013.9 |
| 20260502212533 | 63 | 288 | 6.0 | 14.0 | 0.00 | 0.00 | 0.00 | 51 | 1014.0 |
| 20260502212034 | 62 | 296 | 6.0 | 12.0 | 0.00 | 0.00 | 0.00 | 52 | 1013.9 |
| 20260502211532 | 62 | 321 | 5.0 | 12.0 | 0.00 | 0.00 | 0.00 | 54 | 1013.8 |
| 20260502211033 | 62 | 0 | 4.0 | 12.0 | 0.00 | 0.00 | 0.00 | 54 | 1013.9 |
| 20260502210031 | 61 | 321 | 5.0 | 10.0 | 0.00 | 0.00 | 0.00 | 55 | 1014.1 |
| 20260502205532 | 61 | 199 | 5.0 | 11.0 | 0.00 | 0.00 | 0.00 | 54 | 1014.2 |
| 20260502205031 | 62 | 313 | 6.0 | 11.0 | 0.00 | 0.00 | 0.00 | 54 | 1014.1 |
| 20260502204531 | 62 | 230 | 6.0 | 11.0 | 0.00 | 0.00 | 0.00 | 54 | 1014.2 |
| 20260502203031 | 62 | 283 | 4.0 | 11.0 | 0.00 | 0.00 | 0.00 | 53 | 1014.3 |
| 20260502202031 | 63 | 278 | 3.0 | 12.0 | 0.00 | 0.00 | 0.00 | 53 | 1014.4 |
| 20260502201030 | 63 | 347 | 4.0 | 11.0 | 0.00 | 0.00 | 0.00 | 53 | 1014.3 |
| 20260502200532 | 63 | 197 | 4.0 | 11.0 | 0.00 | 0.00 | 0.00 | 54 | 1014.4 |
| 20260502200032 | 62 | 272 | 4.0 | 13.0 | 0.00 | 0.00 | 0.00 | 54 | 1014.4 |
| 20260502195533 | 62 | 306 | 4.0 | 13.0 | 0.00 | 0.00 | 0.00 | 54 | 1014.4 |
| 20260502195031 | 62 | 272 | 4.0 | 12.0 | 0.00 | 0.00 | 0.00 | 55 | 1014.4 |
| 20260502194532 | 62 | 245 | 6.0 | 10.0 | 0.00 | 0.00 | 0.00 | 55 | 1014.3 |
| 20260502194032 | 62 | 285 | 4.0 | 11.0 | 0.00 | 0.00 | 0.00 | 55 | 1014.4 |
| 20260502193532 | 62 | 269 | 5.0 | 11.0 | 0.00 | 0.00 | 0.00 | 54 | 1014.5 |
| 20260502193031 | 62 | 288 | 4.0 | 10.0 | 0.00 | 0.00 | 0.00 | 55 | 1014.3 |
| 20260502192531 | 61 | 259 | 4.0 | 10.0 | 0.00 | 0.00 | 0.00 | 56 | 1014.3 |
| 20260502192032 | 61 | 305 | 4.0 | 10.0 | 0.00 | 0.00 | 0.00 | 56 | 1014.4 |
| 20260502191031 | 61 | 251 | 4.0 | 11.0 | 0.00 | 0.00 | 0.00 | 55 | 1014.3 |